User: anonymous   Login
Location: Unspecified
(0.0000°N, 0.0000°E)
Time: 10:31:43
(UTC+00:00)
Language:

AEHF 3 (USA 246) - Orbit

View from above orbital plane
View from above orbital plane
View from above satellite
View from above satellite

Ground track
Ground track

The orbit data is extracted from the following two-line orbital elements,

1 39256U 13050A   19145.86575806 -.00000187  00000-0  00000+0 0  9995
2 39256   1.1882 313.7034 0006196  73.4778 319.8459  1.00270113 20822
Epoch (UTC): 25 May 2019 20:46:41
Eccentricity: 0.0006196
inclination: 1.1882°
perigee height: 35760 km
apogee height: 35813 km
right ascension of ascending node: 313.7034°
argument of perigee: 73.4778°
revolutions per day: 1.00270113
mean anomaly at epoch: 319.8459°
orbit number at epoch: 2082

The dashed part of the orbit path shows where the satellite is in the earth's shadow,  

DLR